Torna al catalogo

NOAA 12 DEB

AttivoSSO
NORAD 37832·DEBRIS·🇺🇸 United States

Lanciato May 14, 1991 da Vandenberg Space Force Base

Loading…

Prossimi Passaggi (prossime 24 ore)

TLE

AggiornatoSource: Space-Track

Epoca: Sep 14, 2026, 10:26 UTC

1 37832U 91032E   26257.43505373  .00004151  00000-0  84323-3 0  9994
2 37832  98.2678 318.1391 0007897 171.3599 199.5774 14.61649404785851

Traccia NOAA 12 DEB in tempo reale con AllMySat

Download on the App Store